Regional Weather Roundup
Issued by NWS Little Rock, AR

Home | Current Version | Previous Version | Text Only | Print | Product List | Glossary On
Versions: 1 2 3 4 5 6 7 8 9 10 11 12 13 14 15 16 17 18 19 20 21 22 23 24 25 26 27 28 29 30 31 32 33 34 35 36 37 38 39 40 41 42 43 44 45 46 47 48 49 50
000
ASUS44 KLZK 181505
RWRLZK

WEATHER ROUNDUP FOR ARKANSAS
NATIONAL WEATHER SERVICE LITTLE ROCK AR
900 AM CST THU DEC 18 2014

NOTE: "FAIR" INDICATES FEW OR NO CLOUDS BELOW 12,000 FEET WITH NO
SIGNIFICANT WEATHER AND/OR OBSTRUCTIONS TO VISIBILITY.

ARZ001-003-010-029-181600-
NORTHWEST ARKANSAS

CITY           SKY/WX    TMP DP  RH WIND       PRES   REMARKS
FAYETTEVILLE   CLOUDY    36  35  96 S5        30.19R
FORT SMITH     CLOUDY    37  34  89 E10       30.22S FOG
HARRISON       CLOUDY    34  34 100 SE8       30.20R FOG     WCI  27
BENTONVILLE    CLOUDY    37  34  87 S5        30.19R
ROGERS         CLOUDY    36  36 100 SE5       30.19R
SILOAM SPGS    CLOUDY    37  30  75 S3        30.20R
HIGHFILL       CLOUDY    37  36  96 S6        30.18R FOG
SPRINGDALE     DRIZZLE   36  36 100 SE8       30.20R FOG
$$

ARZ004-005-016-181600-
NORTH CENTRAL ARKANSAS

CITY           SKY/WX    TMP DP  RH WIND       PRES   REMARKS
BATESVILLE     CLOUDY    36  34  93 E3        30.26R
FLIPPIN        CLOUDY    36  30  80 SE5       30.23R
MTN HOME       CLOUDY    34  33  96 SE3       30.22R FOG
$$

ARZ040-041-181600-
WEST CENTRAL ARKANSAS

CITY           SKY/WX    TMP DP  RH WIND       PRES   REMARKS
MENA           CLOUDY    39  37  93 E3        30.20S
MOUNT IDA      CLOUDY    39  37  92 CALM      30.19R FOG
$$

ARZ009-017-025-026-028-181600-
NORTHEAST ARKANSAS

CITY           SKY/WX    TMP DP  RH WIND       PRES   REMARKS
CORNING        PTSUNNY   37  37 100 NE8       30.29R FOG
JONESBORO      CLOUDY    38  36  92 NE6       30.27R
NEWPORT        CLOUDY    38  36  92 NE8       30.28R FOG
WALNUT RIDGE   CLOUDY    37  34  87 NE7       30.27R
BLYTHEVILLE    CLOUDY    38  36  92 NE7       30.28R
NW BLYTHEVILLE CLOUDY    37  36  93 NE6       30.27
$$

ARZ022-023-033-042-044-181600-
CENTRAL ARKANSAS

CITY           SKY/WX    TMP DP  RH WIND       PRES   REMARKS
LITTLE ROCK    DRIZZLE   39  36  89 NE5       30.25R FOG
N LITTLE ROCK  CLOUDY    37  37 100 E6        30.25R
JACKSONVILLE   CLOUDY    38  37  98 E5        30.25R FOG
SEARCY         CLOUDY    38  36  92 NE6       30.28R FOG
HOT SPRINGS    CLOUDY    39  37  92 E3        30.22S FOG
RUSSELLVILLE   CLOUDY    37  34  89 E3        30.24R
CLINTON        CLOUDY    37  36  93 CALM      30.27R
$$

ARZ036-181600-
EAST ARKANSAS

CITY           SKY/WX    TMP DP  RH WIND       PRES   REMARKS
WEST MEMPHIS   CLOUDY    39  37  92 E5        30.25R
$$

ARZ050-053-066-070-073-181600-
SOUTHWEST ARKANSAS

CITY           SKY/WX    TMP DP  RH WIND       PRES   REMARKS
ARKADELPHIA    CLOUDY    40  40 100 NE7       30.24R FOG
CAMDEN         PTSUNNY   41  39  93 CALM      30.22R FOG
TEXARKANA      CLOUDY    41  40  96 E5        30.19S
EL DORADO      CLOUDY    42  41  96 SE5       30.21R
DE QUEEN       CLOUDY    40  39  97 E6        30.19S FOG
$$

ARZ056-057-069-181600-
SOUTHEAST ARKANSAS

CITY           SKY/WX    TMP DP  RH WIND       PRES   REMARKS
PINE BLUFF     CLOUDY    41  38  89 E5        30.23R
STUTTGART      CLOUDY    39  36  87 NE7       30.25R
MONTICELLO     CLOUDY    43  40  89 E6        30.22R

$$





USA.gov is the U.S. government's official web portal to all federal, state and local government web resources and services.